[[{"header":{"parameterUnit":"m.s-1","parameterCategory":1,"la1":30.2991,"la2":30.254,"lo1":-89.0895,"lo2":-89.0444,"dy":0.0017,"dx":0.0017,"nx":28,"ny":28,"refTime":"2025-11-26T09:00:00:Z","depth":0,"parameterNumber":2,"parameterNumberName":"U-component_of_WINDS"},"data":[0,0,0,0,0,0,0,0,0,0,0,0,0,0,0,0,0,0,0,0,0,0,0,0,0,0,0,0,0,0,0,0,0,0,0,0,0,0,0,0,0,0,0,0,0,0,0,0,0,0,0,0,0,0,0,0,0,0,-1.8482,-1.8483,0,-1.8554,-1.8555,-1.8556,-1.8494,-1.8491,-1.8489,-1.8486,-1.856,-1.8565,-1.8569,0,0,0,0,0,0,0,0,0,0,0,0,0,-1.8292,-1.8296,-1.8482,-1.8483,-1.8484,-1.8554,-1.8555,-1.8556,-1.8494,-1.8491,-1.8488,-1.8485,-1.8559,-1.8564,-1.8569,0,0,0,0,0,0,0,0,0,0,0,0,0,-1.837,-1.8297,-1.8482,-1.8462,-1.8461,-1.8554,-1.8555,-1.8556,-1.8495,-1.8491,-1.8487,-1.8484,-1.8557,-1.8564,-1.857,-1.8687,0,0,-1.859,-1.8593,0,0,0,0,0,0,0,0,-1.8366,-1.8377,-1.8464,-1.8463,-1.8462,-1.8511,-1.8515,-1.86,-1.8496,-1.8482,-1.8486,-1.8482,-1.8547,-1.8554,-1.8576,-1.8691,-1.8694,-1.8591,-1.8595,-1.8597,-1.8599,0,0,0,0,0,0,0,-1.836,-1.8374,-1.8511,-1.8465,-1.8464,-1.8449,-1.8456,-1.8531,-1.8535,-1.8483,-1.8478,-1.8488,-1.8546,-1.857,-1.8577,-1.8695,-1.8591,-1.8596,-1.86,-1.8603,-1.8909,-1.8913,0,0,0,0,0,0,-1.8357,-1.837,-1.8508,-1.8513,-1.8404,-1.8455,-1.8463,-1.8499,-1.8534,-1.8536,-1.8491,-1.8485,-1.8561,-1.857,-1.858,-1.872,-1.8597,-1.8604,-1.8607,-1.8904,-1.8909,-1.8914,0,0,0,0,0,0,-1.8353,-1.837,-1.8505,-1.844,-1.8456,-1.8463,-1.8504,-1.8503,-1.8527,-1.854,-1.8541,-1.8515,-1.8558,-1.8571,-1.8661,-1.8721,-1.8607,-1.8612,-1.8899,-1.8906,-1.8912,-1.9,0,0,0,0,0,0,-1.8348,-1.8369,-1.8414,-1.8442,-1.846,-1.8586,-1.8508,-1.8507,-1.8538,-1.853,-1.8563,-1.8565,-1.8556,-1.8651,-1.8667,-1.8728,-1.8618,-1.8894,-1.8902,-1.891,-1.8992,-1.9009,-1.9023,0,0,0,0,0,-1.8341,-1.8436,-1.8417,-1.8434,-1.8516,-1.859,-1.86,-1.8588,-1.8543,-1.8588,-1.8597,-1.8564,-1.8711,-1.8661,-1.8679,-1.8742,-1.889,-1.89,-1.8909,-1.8985,-1.9005,-1.9022,0,0,0,0,0,0,-1.8416,-1.844,-1.8418,-1.8525,-1.8556,-1.8579,-1.8636,-1.861,-1.8655,-1.8646,-1.8629,-1.8637,-1.8732,-1.8746,-1.8689,-1.8857,-1.8794,-1.8807,-1.8845,-1.8865,-1.888,-1.8876,-1.8623,0,0,0,0,0,-1.8445,-1.8503,-1.852,-1.8612,-1.8629,-1.863,-1.8661,-1.8649,-1.868,-1.8693,-1.8708,-1.874,-1.8794,-1.883,-1.888,-1.8992,-1.8999,-1.9045,-1.906,-1.9073,-1.9085,-1.9146,-1.9166,-1.8945,-1.8945,-1.8945,0,0,-1.8506,-1.8525,-1.8563,-1.8628,-1.865,-1.871,-1.8641,-1.8708,-1.8752,-1.8703,-1.879,-1.8802,-1.8836,-1.8938,-1.8984,-1.8953,-1.9147,-1.9085,-1.9095,-1.9101,-1.9158,-1.9179,-1.9197,-1.8951,-1.895,-1.8949,0,0,-1.8647,-1.8667,-1.8747,-1.877,-1.8805,-1.8804,-1.8823,-1.885,-1.8856,-1.8942,-1.8907,-1.8959,-1.9052,-1.9077,-1.9103,-1.9251,-1.9223,-1.9268,-1.935,-1.9409,-1.9427,-1.9442,-1.9496,-1.9515,-1.928,-1.928,-1.928,0,-1.8718,-1.8807,-1.8791,-1.886,-1.8889,-1.8847,-1.8927,-1.895,-1.9,-1.9021,-1.8985,-1.9099,-1.9119,-1.9227,-1.9263,-1.9284,-1.9306,-1.9265,-1.9425,-1.9441,-1.9455,-1.9506,-1.9526,-1.9285,-1.9285,-1.9284,-1.9284,0,-1.8893,-1.8955,-1.9015,-1.9063,-1.9099,-1.9174,-1.9168,-1.9206,-1.919,-1.9193,-1.9281,-1.9303,-1.9357,-1.9381,-1.9366,-1.9486,-1.9465,-1.9428,-1.9364,-1.9482,-1.9529,-1.9549,-1.9293,-1.9291,-1.9289,-1.9288,0,0,-1.9087,-1.9123,-1.9146,-1.9167,-1.9201,-1.9248,-1.932,-1.9372,-1.9405,-1.9439,-1.95,-1.9578,-1.9543,-1.9571,-1.9558,-1.961,-1.9727,-1.9566,-1.9566,-1.9596,-1.9861,-1.989,-1.9913,-1.9707,-1.9711,-1.9713,-1.9858,0,-1.923,-1.9355,-1.9341,-1.9461,-1.9518,-1.9477,-1.9539,-1.9567,-1.9571,-1.962,-1.9624,-1.968,-1.9629,-1.9646,-1.9695,-1.9703,-1.978,-1.9692,-1.9763,-1.9766,-1.9758,-1.9938,-1.997,-2.0106,-1.9877,-1.988,-1.9882,0,-1.9415,-1.9456,-1.9581,-1.9605,-1.9628,-1.9685,-1.9731,-1.9778,-1.9807,-1.9807,-1.9838,-1.9816,-1.9887,-1.982,-1.9918,-1.9858,-1.9886,-1.9894,-1.9899,-1.9907,-1.9833,-1.9952,-2.0149,-2.017,-1.9911,-1.9909,-1.9907,0,-1.9545,-1.9631,-1.9716,-1.9735,-1.9766,-1.9806,-1.9821,-1.9846,-1.9878,-1.9918,-1.9938,-1.9986,-2.0012,-2.0049,-2.004,-1.9992,-2.0141,-2.0073,-2.0143,-2.0143,-2.0178,-2.0176,-2.0383,-2.0193,-2.0193,-2.0193,-2.0192,0,-1.9708,-1.9786,-1.9775,-1.9828,-1.9914,-1.9897,-1.9983,-1.9992,-2.0015,-2.0068,-2.0035,-2.0086,-2.007,-2.012,-2.0113,-2.0196,-2.0208,-2.021,-2.0207,-2.0214,-2.0214,-2.0234,-2.0225,-2.0198,-2.0197,-2.0196,-2.0195,0,-1.9869,-1.9864,-1.9955,-1.9976,-1.9982,-2.0045,-2.0062,-2.0112,-2.0112,-2.0181,-2.0196,-2.0197,-2.0254,-2.0248,-2.0312,-2.0308,-2.041,-2.0396,-2.0401,-2.0398,-2.0469,-2.0463,-2.0697,-2.0727,-2.0516,-2.0518,-2.052,0,-1.9974,-2.0033,-2.0059,-2.0093,-2.011,-2.0164,-2.0196,-2.018,-2.0215,-2.0252,-2.0297,-2.0351,-2.0394,-2.0487,-2.0493,-2.0542,-2.0529,-2.0608,-2.0536,-2.0541,-2.0532,-2.0529,-2.0535,-2.0623,-2.0625,-2.0627,-2.0629,0,-2.0161,-2.0156,-2.0203,-2.025,-2.0288,-2.0324,-2.0356,-2.0386,-2.0373,-2.0413,-2.0471,-2.0504,-2.0568,-2.0622,-2.0668,-2.0682,-2.0654,-2.065,-2.0669,-2.0678,-2.0679,-2.068,-2.0441,-2.0646,-2.0644,-2.0643,-2.0642,-2.0641,-2.0299,-2.0349,-2.0375,-2.0429,-2.0451,-2.0482,-2.0529,-2.0535,-2.0583,-2.0635,-2.0622,-2.0687,-2.0713,-2.0772,-2.079,-2.0841,-2.0812,-2.084,-2.0847,-2.0854,-2.0863,-2.0669,-2.0849,-2.0848,-2.0848,-2.0847,-2.0847,0,-2.0485,-2.05,-2.0549,-2.0595,-2.0637,-2.0605,-2.0638,-2.0675,-2.0733,-2.076,-2.0802,-2.0868,-2.092,-2.093,-2.0979,-2.1017,-2.1005,-2.1031,-2.1029,-2.1033,-2.0885,-2.0865,-2.104,-2.104,-2.1039,-2.1039,-2.1039,-2.1039,-2.0588,-2.0672,-2.0669,-2.0763,-2.0777,-2.084,-2.0862,-2.089,-2.0912,-2.0987,-2.1029,-2.1035,-2.1055,-2.1105,-2.115,-2.1152,-2.1172,-2.1203,-2.1199,-2.1062,-2.1043,-2.1025,-2.1005,-2.1207,-2.1207,-2.1342,-2.1344,-2.1345]},{"header":{"parameterUnit":"m.s-1","parameterCategory":1,"la1":30.2991,"la2":30.254,"lo1":-89.0895,"lo2":-89.0444,"dy":0.0017,"dx":0.0017,"nx":28,"ny":28,"refTime":"2025-11-26T09:00:00:Z","depth":0,"parameterNumber":3,"parameterNumberName":"V-component_of_WINDS"},"data":[0,0,0,0,0,0,0,0,0,0,0,0,0,0,0,0,0,0,0,0,0,0,0,0,0,0,0,0,0,0,0,0,0,0,0,0,0,0,0,0,0,0,0,0,0,0,0,0,0,0,0,0,0,0,0,0,0,0,-7.2672,-7.2673,0,-7.281,-7.2811,-7.2813,-7.2711,-7.2706,-7.2702,-7.2698,-7.2833,-7.284,-7.2848,0,0,0,0,0,0,0,0,0,0,0,0,0,-7.2313,-7.232,-7.2671,-7.2673,-7.2675,-7.2809,-7.2811,-7.2813,-7.2712,-7.2706,-7.2701,-7.2696,-7.283,-7.2839,-7.2849,0,0,0,0,0,0,0,0,0,0,0,0,0,-7.2461,-7.2322,-7.2671,-7.2641,-7.2639,-7.2809,-7.2811,-7.2814,-7.2713,-7.2706,-7.2699,-7.2693,-7.2827,-7.2839,-7.285,-7.3055,0,0,-7.2886,-7.2891,0,0,0,0,0,0,0,0,-7.2453,-7.2475,-7.2643,-7.2643,-7.2642,-7.2736,-7.2734,-7.2894,-7.2715,-7.2685,-7.2698,-7.269,-7.2806,-7.2819,-7.2859,-7.3061,-7.3067,-7.2887,-7.2894,-7.2899,-7.2902,0,0,0,0,0,0,0,-7.2443,-7.2468,-7.2726,-7.2646,-7.2645,-7.2618,-7.2632,-7.2764,-7.2781,-7.2687,-7.268,-7.2698,-7.2804,-7.2848,-7.2861,-7.3069,-7.2886,-7.2897,-7.2904,-7.2908,-7.3445,-7.3452,0,0,0,0,0,0,-7.2436,-7.246,-7.2721,-7.273,-7.2529,-7.263,-7.2645,-7.2713,-7.2779,-7.2783,-7.2703,-7.2693,-7.2832,-7.2848,-7.2866,-7.311,-7.2898,-7.2909,-7.2916,-7.3438,-7.3447,-7.3454,0,0,0,0,0,0,-7.2429,-7.2461,-7.2716,-7.2593,-7.2624,-7.2643,-7.272,-7.2719,-7.2763,-7.2792,-7.2793,-7.2746,-7.2827,-7.2849,-7.3009,-7.3113,-7.2915,-7.2925,-7.3429,-7.344,-7.3451,-7.36,0,0,0,0,0,0,-7.2419,-7.2459,-7.2539,-7.2596,-7.2631,-7.286,-7.2726,-7.2726,-7.2784,-7.2771,-7.2832,-7.2836,-7.2823,-7.2992,-7.3021,-7.3125,-7.2934,-7.342,-7.3434,-7.3447,-7.3586,-7.3614,-7.3639,0,0,0,0,0,-7.2407,-7.2574,-7.2543,-7.2575,-7.2732,-7.2866,-7.2885,-7.287,-7.2793,-7.2872,-7.289,-7.2834,-7.3097,-7.3009,-7.304,-7.315,-7.3413,-7.343,-7.3446,-7.3574,-7.3609,-7.3638,0,0,0,0,0,0,-7.2527,-7.2581,-7.2548,-7.2739,-7.2799,-7.2848,-7.2948,-7.2907,-7.2989,-7.2973,-7.2948,-7.2962,-7.313,-7.3156,-7.3057,-7.3351,-7.3242,-7.3266,-7.3329,-7.3363,-7.3389,-7.3379,-7.2944,0,0,0,0,0,-7.2576,-7.2682,-7.2723,-7.2888,-7.292,-7.2929,-7.2987,-7.297,-7.303,-7.3054,-7.3084,-7.3142,-7.3238,-7.3301,-7.3391,-7.3588,-7.3599,-7.3679,-7.3706,-7.3728,-7.3748,-7.3853,-7.3889,-7.3508,-7.3508,-7.3508,0,0,-7.2677,-7.272,-7.2789,-7.2913,-7.2957,-7.3066,-7.2951,-7.3071,-7.3151,-7.3071,-7.3224,-7.3248,-7.3312,-7.3491,-7.3571,-7.3518,-7.3855,-7.3749,-7.3766,-7.3774,-7.3874,-7.391,-7.3942,-7.352,-7.3518,-7.3516,0,0,-7.2918,-7.2962,-7.3104,-7.3151,-7.322,-7.3225,-7.3259,-7.3315,-7.3329,-7.3482,-7.3425,-7.3518,-7.3684,-7.3731,-7.3777,-7.4035,-7.3985,-7.4064,-7.4204,-7.4307,-7.4337,-7.4363,-7.4455,-7.4488,-7.4085,-7.4085,-7.4085,0,-7.3035,-7.32,-7.3181,-7.3306,-7.3362,-7.3296,-7.3438,-7.3484,-7.3578,-7.3617,-7.3556,-7.3762,-7.38,-7.3989,-7.4052,-7.4092,-7.4128,-7.4058,-7.4334,-7.4361,-7.4385,-7.4472,-7.4506,-7.4094,-7.4093,-7.4092,-7.4091,0,-7.3339,-7.3454,-7.356,-7.3655,-7.3722,-7.3855,-7.3854,-7.3924,-7.3901,-7.3911,-7.4067,-7.4111,-7.4208,-7.4251,-7.4229,-7.4437,-7.4401,-7.4338,-7.4228,-7.4431,-7.4512,-7.4545,-7.4107,-7.4104,-7.4101,-7.4099,0,0,-7.366,-7.3744,-7.3783,-7.3825,-7.3896,-7.3983,-7.4111,-7.4208,-7.4268,-7.4335,-7.4441,-7.4582,-7.4524,-7.4576,-7.4558,-7.4648,-7.4849,-7.4573,-7.4574,-7.4623,-7.508,-7.5127,-7.5166,-7.4816,-7.4823,-7.4828,-7.5074,0,-7.3905,-7.4132,-7.4119,-7.4331,-7.4436,-7.4375,-7.4486,-7.4541,-7.4554,-7.4642,-7.4655,-7.4756,-7.4672,-7.4703,-7.479,-7.4807,-7.494,-7.4788,-7.4913,-7.4918,-7.49,-7.5209,-7.5259,-7.549,-7.5106,-7.5111,-7.5115,0,-7.4221,-7.43,-7.4524,-7.4579,-7.4622,-7.4723,-7.481,-7.4897,-7.4956,-7.4959,-7.5018,-7.4984,-7.5112,-7.4999,-7.5173,-7.507,-7.512,-7.5136,-7.5144,-7.5155,-7.5029,-7.5227,-7.5563,-7.5598,-7.5165,-7.5161,-7.5157,0,-7.4432,-7.4595,-7.4749,-7.4787,-7.4855,-7.4927,-7.4959,-7.5012,-7.5071,-7.5146,-7.5183,-7.5271,-7.532,-7.5388,-7.5378,-7.5297,-7.5556,-7.5442,-7.556,-7.556,-7.5617,-7.5614,-7.5966,-7.565,-7.5649,-7.5649,-7.5648,0,-7.4706,-7.4845,-7.4845,-7.494,-7.5093,-7.5076,-7.5227,-7.5249,-7.5297,-7.5394,-7.5345,-7.5436,-7.5419,-7.5509,-7.5502,-7.5647,-7.5669,-7.5673,-7.567,-7.5678,-7.5677,-7.571,-7.5694,-7.5658,-7.5656,-7.5654,-7.5653,0,-7.4968,-7.4974,-7.5139,-7.519,-7.5206,-7.5316,-7.5359,-7.5448,-7.5456,-7.5579,-7.5607,-7.562,-7.5724,-7.5721,-7.5838,-7.5833,-7.6011,-7.5989,-7.5992,-7.5988,-7.6106,-7.6095,-7.6491,-7.6541,-7.6193,-7.6197,-7.6199,0,-7.5143,-7.5249,-7.5312,-7.5374,-7.5411,-7.5512,-7.5572,-7.5557,-7.5621,-7.5697,-7.5776,-7.5876,-7.5955,-7.6123,-7.6141,-7.623,-7.621,-7.6342,-7.6223,-7.6227,-7.6211,-7.6205,-7.6215,-7.6366,-7.637,-7.6373,-7.6375,0,-7.5453,-7.545,-7.554,-7.5632,-7.5705,-7.5775,-7.584,-7.5893,-7.5885,-7.5959,-7.6066,-7.6128,-7.6248,-7.6347,-7.6432,-7.6461,-7.6417,-7.6413,-7.6445,-7.6454,-7.6452,-7.6454,-7.6056,-7.6404,-7.6401,-7.6399,-7.6398,-7.6396,-7.5676,-7.5767,-7.5826,-7.5927,-7.5975,-7.6036,-7.6122,-7.6142,-7.6232,-7.633,-7.6315,-7.6434,-7.6488,-7.6599,-7.6636,-7.6727,-7.668,-7.6726,-7.6738,-7.675,-7.6763,-7.6438,-7.6742,-7.6742,-7.6741,-7.674,-7.6739,0,-7.5983,-7.6018,-7.6111,-7.6204,-7.6283,-7.6237,-7.6305,-7.6374,-7.648,-7.6536,-7.6615,-7.6737,-7.6832,-7.6859,-7.695,-7.7018,-7.7,-7.7042,-7.7037,-7.7044,-7.68,-7.6763,-7.7055,-7.7055,-7.7055,-7.7055,-7.7055,-7.7055,-7.6152,-7.6303,-7.6308,-7.6481,-7.6513,-7.6632,-7.6675,-7.673,-7.6775,-7.6914,-7.6994,-7.7011,-7.7054,-7.7148,-7.7233,-7.7238,-7.7273,-7.7324,-7.7321,-7.7093,-7.7061,-7.7031,-7.6996,-7.7332,-7.7333,-7.7557,-7.7559,-7.7561]}]]